Tapachula Airport, Mexico

1:09 AM CDT on April 26, 2017 (GMT -0500)
Tapachula International

Weather History for MMTP - October, 2013

Change the Weather History Date:

Thursday, October 24, 2013

  Actual Average Record
Temperature  
Mean Temperature 81 °F -  
Max Temperature 87 °F 86 °F 91 °F (2015)
Min Temperature 75 °F 73 °F 71 °F (2007)
Cooling Degree Days 16    
Growing Degree Days 31 (Base 50)    
Moisture  
Dew Point 75 °F    
Average Humidity 86    
Maximum Humidity 94    
Minimum Humidity 70    
Precipitation  
Precipitation 0.00 in - - ()
Sea Level Pressure  
Sea Level Pressure 29.85 in    
Wind  
Wind Speed 1 mph ()    
Max Wind Speed 8 mph    
Max Gust Speed -    
Visibility 9.6 miles    
Events      
Averages and records for this station are not official NWS values.
T = Trace of Precipitation, MM = Missing Value Source: Averaged Metar Reports

Daily Weather History Graph

Daily Weather History Graph

Search for Another Location

Airport or City:

Trip Planner

Search our weather history database for the weather conditions in past years. The results will help you decide how hot, cold, wet, or windy it might be!

Date:

Astronomy

Oct. 24, 2013 Rise Set
Actual Time 7:02 AM CDT 6:43 PM CDT
Civil Twilight 6:40 AM CDT 7:05 PM CDT
Nautical Twilight 6:15 AM CDT 7:30 PM CDT
Astronomical Twilight 5:50 AM CDT 7:55 PM CDT
Moon 11:26 PM CDT (10/24) 11:44 AM CDT (10/24)
Length of Visible Light 12h 24m
Length of Day
11h 41m
Waning Gibbous, 71% of the Moon is Illuminated
Oct 24
Waning Gibbous
Oct 26
Last Quarter
Nov 3
New
Nov 9
First Quarter
Nov 17
Full

Hourly Weather History & Observations

Time (CDT) Temp. Heat Index Dew Point Humidity Pressure Visibility Wind Dir Wind Speed Gust Speed Precip Events Conditions
12:40 AM 77.0 °F - 73.4 °F 89% 29.85 in 10.0 mi Calm Calm - N/A   Mostly Cloudy
1:52 AM 78.8 °F - 73.4 °F 83% 29.86 in 10.0 mi Calm Calm - N/A   Mostly Cloudy
2:40 AM 77.0 °F - 73.4 °F 89% 29.85 in 10.0 mi Calm Calm - N/A   Mostly Cloudy
4:41 AM 77.0 °F - 73.4 °F 89% 29.84 in 10.0 mi Calm Calm - N/A   Mostly Cloudy
6:14 AM 77.0 °F - 75.2 °F 94% 29.85 in 10.0 mi Calm Calm - N/A   Mostly Cloudy
6:48 AM 77.0 °F - 75.2 °F 94% 29.82 in 10.0 mi Calm Calm - N/A   Scattered Clouds
7:48 AM 77.0 °F - 75.2 °F 94% 29.86 in 10.0 mi Calm Calm - N/A   Scattered Clouds
8:40 AM 78.8 °F - 75.2 °F 89% 29.88 in 10.0 mi Calm Calm - N/A   Mostly Cloudy
9:40 AM 86.0 °F 99.3 °F 78.8 °F 79% 29.86 in 10.0 mi Calm Calm - N/A   Partly Cloudy
11:09 AM 87.8 °F 102.5 °F 78.8 °F 75% 29.89 in 10.0 mi Calm Calm - N/A   Mostly Cloudy
11:40 AM 87.8 °F 99.7 °F 77.0 °F 70% 29.88 in 10.0 mi Calm Calm - N/A   Mostly Cloudy
12:40 PM 87.8 °F 102.5 °F 78.8 °F 75% 29.83 in 10.0 mi Calm Calm - N/A   Mostly Cloudy
1:47 PM 86.0 °F 99.3 °F 78.8 °F 79% 29.83 in 10.0 mi Calm Calm - N/A   Mostly Cloudy
2:40 PM 84.2 °F 96.1 °F 78.8 °F 84% 29.80 in 10.0 mi SW 8.1 mph - N/A   Mostly Cloudy
3:49 PM 86.0 °F 96.9 °F 77.0 °F 74% 29.75 in 10.0 mi SW 8.1 mph - N/A   Mostly Cloudy
4:40 PM 86.0 °F 96.9 °F 77.0 °F 74% 29.81 in 10.0 mi SW 6.9 mph - N/A   Mostly Cloudy
5:40 PM 77.0 °F - 75.2 °F 94% 29.83 in 6.0 mi Calm Calm - N/A   Mostly Cloudy
6:40 PM 75.2 °F - 73.4 °F 94% 29.85 in 10.0 mi Calm Calm - N/A   Mostly Cloudy
7:41 PM 75.2 °F - 73.4 °F 94% 29.87 in 10.0 mi Calm Calm - N/A   Mostly Cloudy
9:02 PM 75.2 °F - 73.4 °F 94% 29.90 in 10.0 mi Calm Calm - N/A   Mostly Cloudy
9:44 PM 75.2 °F - 73.4 °F 94% 29.85 in 8.0 mi Calm Calm - N/A   Mostly Cloudy
10:45 PM 75.2 °F - 73.4 °F 94% 29.92 in 8.0 mi Calm Calm - N/A   Mostly Cloudy
11:48 PM 75.2 °F - 73.4 °F 94% 29.92 in 8.0 mi Calm Calm - N/A   Mostly Cloudy